Simultaneous Nadir Overpasses (SNOs) Predictions

Prediction of SNOs between GOES-17 and METOP-B Satellite Orbit:

Table of predicted SNOs for the next 14.0 days since TLE Epoch: 3/7/2025
Index Date Time (GOES-17) GOES-17 Lat,Lon METOP-B Lat,Lon Distance(km) Time Diff (sec)
1 03/10/2025 04:07:48 0.00,-104.39 0.01,-104.47 8.84 80
2 03/12/2025 16:06:07 -0.01,-104.42 -0.05,-104.09 36.84 80
3 03/14/2025 04:25:11 0.01,-104.40 -0.97,-108.72 492.73 80
4 03/15/2025 04:07:15 0.01,-104.41 0.15,-103.75 74.53 80
5 03/16/2025 16:26:11 -0.01,-104.43 0.85,-108.35 446.38 80
6 03/17/2025 16:02:55 -0.01,-104.44 -0.27,-103.38 120.79 80
7 03/19/2025 04:21:58 0.01,-104.42 -0.80,-108.00 408.80 80
8 03/20/2025 04:04:01 0.01,-104.42 0.34,-103.03 158.31 80
9 03/21/2025 16:22:57 -0.01,-104.44 0.71,-107.63 362.91 80
